Weather in Sovetskij

Russia / Republic of Crimea     45°20′25″N   34°55′44″E
temp.,
°C
wind,
m/s
gust,
m/s
humid.,
%
clouds,
%
prec.,
mm/h
press.,
hPa
HPBL,
m
27 february, sat
sat2700:00+7sw35760 0.0 102392
03:00+7wsw49740 0.0 1021204
06:00+6wsw38730 0.0 1020180
09:00+8wsw27680 0.0 1019278
12:00+14w710520 0.0 1019829
15:00+14w811530 0.0 1018930
18:00+10w6107321 0.0 1017528
21:00+7n469361 0.6 1018334
28 february, sun
sun2800:00+5nnw5790100 3.8 1018545
03:00+5nw5781100 4.2 1019630
06:00+4nw5879100 0.1 1019651
09:00+3nw688798 0.3 1020640
12:00+4nw5784100 0.1 1021678
15:00+6nw5770100 0.8 1021997
18:00+5nw4778100 0.5 1022884
21:00+3wnw479297 0.8 1023365
1 march, mon
mon100:00+2wnw479175 0.1 1023339
03:00+2w469288 0.1 1024289
06:00+1w239394 0.0 102465
09:00+2wnw359597 0.1 1025300
12:00+3nw127698 0.2 1026485
15:00+4nne226898 0.3 1026705
18:00+3nne337899 0.1 1027519
21:00+1n128381 0.1 102822
2 march, tue
tue200:000nw22860 0.0 102930
03:000wnw338828 0.0 103058
06:000wnw238182 0.0 102942
09:00+2wnw347161 0.0 1030287
12:00+5wnw565635 0.0 10301196
15:00+6wnw685544 0.0 10281237
18:00+5w596136 0.0 1026782
21:00+3w6127368 0.0 1026572
3 march, wed
wed300:00+3w7147832 0.0 1026444
03:00+5w6117966 0.0 1025342
06:00+4wnw4790100 0.1 1025346
09:00+3wnw477669 0.1 1025413
12:00+8wnw68590 0.0 1026954
15:00+8nw586245 0.1 10251309
18:00+7nnw5864100 0.1 1026735
21:00+5nnw366978 0.1 1028192